Tracking 25710 objects as of 5-Jul-2022
HD Live streaming from Space Station
objects crossing your sky now

FENGYUN 1C DEB

Track FENGYUN 1C DEB now!
10-day predictions


NORAD ID: 29895
Int'l Code: 1999-025GR
Perigee: 670.3 km
Apogee: 1,204.0 km
Inclination: 99.9 °
Period: 103.6 minutes
Semi major axis: 7308 km
RCS: 0.0261 m2 (small)
Launch date: May 10, 1999
Source: People's Republic of China (PRC)
Launch site: Taiyaun Space Center, China (TSC)

Note: This is SATELLITE DEBRIS
aabbcc
Your satellite tracking list
Your tracking list is empty




NASA's NSSDC Master Catalog

Two Line Element Set (TLE):
1 29895U 99025GR  22185.96620918  .00001064  00000-0  53204-3 0  9995
2 29895  99.9383 176.6105 0365091 108.7124 315.0827 13.89602307779692
Source of the keplerian elements: AFSPC